TimePST,TemperatureF,Dew PointF,Humidity,Sea Level PressureIn,VisibilityMPH,Wind Direction,Wind SpeedMPH,Gust SpeedMPH,PrecipitationIn,Events,Conditions,WindDirDegrees,DateUTC
12:56 AM,46.0,45.0,96,30.13,9.0,South,8.1,-,0.02,,Overcast,170,2013-01-25 08:56:00
1:33 AM,46.4,46.4,100,30.11,10.0,South,10.4,-,N/A,,Overcast,170,2013-01-25 09:33:00
1:56 AM,46.9,46.0,97,30.12,9.0,South,9.2,-,0.00,Rain,Light Rain,170,2013-01-25 09:56:00
2:23 AM,46.4,46.4,100,30.11,5.0,South,10.4,-,0.00,Rain,Light Rain,170,2013-01-25 10:23:00
2:56 AM,48.0,46.9,96,30.10,6.0,SSE,10.4,-,0.01,Rain,Light Rain,160,2013-01-25 10:56:00
3:56 AM,48.0,46.9,96,30.09,7.0,South,6.9,-,0.02,Rain,Light Rain,170,2013-01-25 11:56:00
4:56 AM,48.0,46.9,96,30.09,10.0,South,5.8,-,0.00,,Overcast,170,2013-01-25 12:56:00
5:05 AM,48.2,46.4,93,30.08,10.0,South,5.8,-,N/A,,Overcast,170,2013-01-25 13:05:00
5:29 AM,46.4,46.4,100,30.08,6.0,SSE,5.8,-,0.00,Rain,Light Rain,160,2013-01-25 13:29:00
5:56 AM,48.0,46.9,96,30.08,10.0,South,6.9,-,0.01,,Overcast,180,2013-01-25 13:56:00
6:28 AM,48.2,46.4,93,30.07,10.0,South,6.9,-,N/A,,Overcast,180,2013-01-25 14:28:00
6:56 AM,48.0,46.9,96,30.07,10.0,SSE,9.2,-,N/A,,Overcast,160,2013-01-25 14:56:00
7:45 AM,46.4,46.4,100,30.07,2.0,SE,5.8,-,0.00,Rain,Light Rain,140,2013-01-25 15:45:00
7:56 AM,46.9,46.9,100,30.07,2.0,SE,8.1,-,0.00,,Overcast,140,2013-01-25 15:56:00
8:19 AM,48.2,46.4,93,30.07,3.0,SSE,6.9,-,N/A,,Overcast,160,2013-01-25 16:19:00
8:37 AM,48.2,48.2,100,30.06,2.0,SSE,5.8,-,0.01,Rain,Light Rain,150,2013-01-25 16:37:00
8:56 AM,48.0,48.0,100,30.07,3.0,SSE,6.9,-,0.01,,Overcast,160,2013-01-25 16:56:00
9:56 AM,48.9,48.9,100,30.07,3.0,South,6.9,-,0.02,Rain,Light Rain,170,2013-01-25 17:56:00
10:56 AM,50.0,48.9,96,30.07,10.0,South,8.1,-,0.02,,Overcast,180,2013-01-25 18:56:00
11:03 AM,51.8,48.2,88,30.06,10.0,South,9.2,-,N/A,,Overcast,180,2013-01-25 19:03:00
11:56 AM,51.1,48.9,92,30.05,7.0,SSE,8.1,-,N/A,,Overcast,150,2013-01-25 19:56:00
12:56 PM,52.0,48.9,89,30.03,10.0,South,9.2,-,N/A,,Overcast,180,2013-01-25 20:56:00
1:56 PM,52.0,48.9,89,30.01,10.0,SSW,6.9,-,N/A,,Mostly Cloudy,200,2013-01-25 21:56:00
2:54 PM,51.8,48.2,88,29.99,10.0,South,6.9,-,0.00,,Mostly Cloudy,180,2013-01-25 22:54:00
2:56 PM,52.0,48.9,89,29.99,10.0,SSE,5.8,-,0.00,,Mostly Cloudy,160,2013-01-25 22:56:00
3:56 PM,53.1,48.9,86,29.99,10.0,SSW,4.6,-,0.00,,Mostly Cloudy,200,2013-01-25 23:56:00
4:03 PM,51.8,48.2,88,29.98,10.0,South,4.6,-,N/A,,Overcast,180,2013-01-26 00:03:00
4:56 PM,51.1,46.9,86,29.99,10.0,South,5.8,-,N/A,,Mostly Cloudy,180,2013-01-26 00:56:00
5:56 PM,46.9,45.0,93,29.99,10.0,WSW,3.5,-,N/A,,Partly Cloudy,240,2013-01-26 01:56:00
6:56 PM,42.1,39.9,92,29.98,10.0,SW,3.5,-,N/A,,Clear,220,2013-01-26 02:56:00
7:56 PM,39.0,39.0,100,29.98,10.0,South,4.6,-,N/A,,Clear,190,2013-01-26 03:56:00
8:56 PM,39.0,39.0,100,29.98,10.0,SSW,3.5,-,N/A,,Clear,210,2013-01-26 04:56:00
9:56 PM,37.0,37.0,100,29.98,10.0,SSW,4.6,-,N/A,,Partly Cloudy,210,2013-01-26 05:56:00
10:20 PM,42.8,41.0,93,29.98,10.0,SSW,11.5,-,N/A,,Partly Cloudy,200,2013-01-26 06:20:00
10:56 PM,39.9,39.0,97,29.99,10.0,South,5.8,-,N/A,,Clear,180,2013-01-26 06:56:00
11:56 PM,39.0,37.9,96,29.99,10.0,SSW,4.6,-,N/A,,Clear,200,2013-01-26 07:56:00